SAS667 ESGG-LSZH

Flight info

Callsign SAS667
Flight time 1h 43m
Altitude 36000
Route VADIN DCT ALASA/N0451F350 M852 EKERN/N0452F360 N125 ELSOB DCT WRB DCT XAROL/N0446F350 DCT SWALM/N0446F360 DCT OMOGI/N0448F370 T721 LAMGO/N0418F270 T721 RILAX
Aircraft A321/M-SDE3FGHIRWY/LB1

Departure

Time 2026-05-04 05:59
Airport Göteborg Landvetter Airport (ESGG)

Arrival

Time 2026-05-04 07:42
Airport Zürich Airport (LSZH)
Time Latitude Longitude Altitude Speed Heading
2026-05-04 05:39 57.66730 12.29261 516 ft 0 kts 116°
2026-05-04 05:51 57.66730 12.29260 516 ft 2 kts 116°
2026-05-04 05:52 57.66738 12.29229 516 ft 3 kts 116°
2026-05-04 05:52 57.66746 12.29197 516 ft 3 kts 122°
2026-05-04 05:52 57.66759 12.29170 516 ft 3 kts 158°
2026-05-04 05:52 57.66779 12.29164 516 ft 3 kts 194°
2026-05-04 05:53 57.66797 12.29177 516 ft 2 kts 206°
2026-05-04 05:54 57.66797 12.29178 516 ft 0 kts 206°
2026-05-04 05:55 57.66788 12.29168 516 ft 6 kts 211°
2026-05-04 05:56 57.66785 12.29057 516 ft 12 kts 291°
2026-05-04 05:56 57.66852 12.29010 516 ft 12 kts 22°
2026-05-04 05:56 57.66934 12.29083 516 ft 14 kts 26°
2026-05-04 05:56 57.67023 12.29166 516 ft 15 kts 26°
2026-05-04 05:57 57.67121 12.29256 516 ft 16 kts 26°
2026-05-04 05:57 57.67225 12.29353 516 ft 17 kts 26°
2026-05-04 05:57 57.67336 12.29451 516 ft 15 kts 25°
2026-05-04 05:57 57.67422 12.29429 516 ft 14 kts 306°
2026-05-04 05:58 57.67454 12.29249 515 ft 15 kts 267°
2026-05-04 05:58 57.67450 12.29080 515 ft 9 kts 266°
2026-05-04 05:58 57.67431 12.29031 515 ft 0 kts 208°
2026-05-04 05:58 57.67309 12.28916 515 ft 62 kts 206°
2026-05-04 05:59 57.66667 12.28334 513 ft 142 kts 206°
2026-05-04 05:59 57.65634 12.27380 935 ft 174 kts 206°
2026-05-04 05:59 57.64543 12.26392 2020 ft 176 kts 208°
2026-05-04 05:59 57.63388 12.25343 2751 ft 195 kts 210°
2026-05-04 06:00 57.62131 12.24195 3100 ft 209 kts 210°
2026-05-04 06:00 57.60701 12.23108 3225 ft 238 kts 197°
2026-05-04 06:00 57.58995 12.22619 3681 ft 255 kts 188°
2026-05-04 06:00 57.57196 12.22412 4419 ft 262 kts 186°
2026-05-04 06:01 57.55354 12.22279 5162 ft 267 kts 186°
2026-05-04 06:01 57.53482 12.22071 5900 ft 272 kts 188°
2026-05-04 06:03 57.41647 12.09176 10145 ft 311 kts 225°
2026-05-04 06:03 57.40012 12.06522 10821 ft 313 kts 224°
2026-05-04 06:05 57.27727 11.86693 14716 ft 347 kts 224°
2026-05-04 06:05 57.24086 11.80856 15861 ft 351 kts 224°
2026-05-04 06:05 57.22234 11.77892 16428 ft 353 kts 224°
2026-05-04 06:06 57.20371 11.74914 16999 ft 356 kts 224°
2026-05-04 06:06 57.18496 11.71918 17549 ft 358 kts 224°
2026-05-04 06:06 57.16606 11.68899 18092 ft 360 kts 224°
2026-05-04 06:06 57.14688 11.65905 18555 ft 364 kts 220°
2026-05-04 06:07 57.12520 11.63440 19024 ft 370 kts 210°
2026-05-04 06:07 57.10144 11.61576 19493 ft 372 kts 206°
2026-05-04 06:07 57.07750 11.59751 20005 ft 373 kts 207°
2026-05-04 06:07 57.05350 11.57913 20487 ft 374 kts 207°
2026-05-04 06:08 57.02942 11.56064 20961 ft 376 kts 207°
2026-05-04 06:08 57.00527 11.54209 21420 ft 377 kts 207°
2026-05-04 06:08 56.98097 11.52348 21874 ft 379 kts 207°
2026-05-04 06:08 56.95658 11.50487 22343 ft 381 kts 207°
2026-05-04 06:09 56.93207 11.48621 22797 ft 383 kts 207°
2026-05-04 06:09 56.90742 11.46744 23243 ft 384 kts 207°
2026-05-04 06:11 56.73102 11.33395 25696 ft 400 kts 206°
2026-05-04 06:11 56.70527 11.31461 26040 ft 402 kts 206°
2026-05-04 06:13 56.52160 11.17720 28301 ft 416 kts 206°
2026-05-04 06:14 56.35894 11.05667 29992 ft 424 kts 206°
2026-05-04 06:14 56.33164 11.03661 30258 ft 424 kts 206°
2026-05-04 06:15 56.30434 11.01660 30543 ft 423 kts 206°
2026-05-04 06:15 56.27711 10.99666 30831 ft 422 kts 206°
2026-05-04 06:15 56.24990 10.97670 31106 ft 422 kts 206°
2026-05-04 06:15 56.22276 10.95678 31386 ft 421 kts 206°
2026-05-04 06:16 56.19565 10.93690 31663 ft 421 kts 205°
2026-05-04 06:16 56.16854 10.91706 31939 ft 420 kts 205°
2026-05-04 06:16 56.14151 10.89736 32222 ft 420 kts 205°
2026-05-04 06:16 56.11444 10.87771 32494 ft 419 kts 205°
2026-05-04 06:17 56.08743 10.85815 32737 ft 418 kts 205°
2026-05-04 06:17 56.06046 10.83863 33028 ft 417 kts 205°
2026-05-04 06:17 56.03355 10.81913 33303 ft 417 kts 205°
2026-05-04 06:17 56.00670 10.79969 33563 ft 416 kts 205°
2026-05-04 06:18 55.97986 10.78024 33819 ft 416 kts 205°
2026-05-04 06:18 55.95307 10.76085 34041 ft 416 kts 205°
2026-05-04 06:18 55.92628 10.74149 34237 ft 416 kts 205°
2026-05-04 06:20 55.73829 10.60712 35562 ft 416 kts 205°
2026-05-04 06:20 55.71139 10.58796 35764 ft 416 kts 205°
2026-05-04 06:21 55.60415 10.51180 35895 ft 416 kts 205°
2026-05-04 06:22 55.55034 10.47395 35891 ft 416 kts 205°
2026-05-04 06:25 55.17301 10.21094 35935 ft 417 kts 205°
2026-05-04 06:26 55.11908 10.17365 35953 ft 417 kts 205°
2026-05-04 06:26 55.06514 10.13644 35945 ft 417 kts 205°
2026-05-04 06:27 54.93940 10.05046 35964 ft 416 kts 205°
2026-05-04 06:28 54.88549 10.01382 35966 ft 416 kts 205°
2026-05-04 06:28 54.83152 9.97731 35938 ft 416 kts 205°
2026-05-04 06:29 54.77548 9.95088 35952 ft 421 kts 195°
2026-05-04 06:29 54.71796 9.93215 35955 ft 420 kts 195°
2026-05-04 06:30 54.66048 9.91340 35953 ft 420 kts 195°
2026-05-04 06:30 54.60297 9.89479 35932 ft 420 kts 195°
2026-05-04 06:31 54.54545 9.87642 35954 ft 420 kts 194°
2026-05-04 06:31 54.48796 9.85816 35959 ft 420 kts 194°
2026-05-04 06:33 54.25830 9.78501 35957 ft 420 kts 194°
2026-05-04 06:34 54.20087 9.76633 35961 ft 420 kts 195°
2026-05-04 06:34 54.14370 9.74634 35962 ft 419 kts 196°
2026-05-04 06:36 53.91479 9.66773 35970 ft 420 kts 195°
2026-05-04 06:37 53.85751 9.64841 35955 ft 420 kts 195°
2026-05-04 06:37 53.80020 9.62915 35965 ft 420 kts 195°
2026-05-04 06:38 53.74292 9.60994 35976 ft 420 kts 195°
2026-05-04 06:40 53.51148 9.54702 35983 ft 423 kts 191°
2026-05-04 06:40 53.45319 9.53450 35988 ft 422 kts 192°
2026-05-04 06:41 53.39500 9.52113 35990 ft 422 kts 192°
2026-05-04 06:41 53.33683 9.50769 35974 ft 422 kts 192°
2026-05-04 06:42 53.27868 9.49448 35986 ft 422 kts 192°
2026-05-04 06:44 53.04671 9.44244 35993 ft 421 kts 192°
2026-05-04 06:44 52.98863 9.42957 35991 ft 421 kts 192°
2026-05-04 06:45 52.93053 9.41675 35991 ft 421 kts 192°
2026-05-04 06:45 52.87250 9.40396 35967 ft 421 kts 192°
2026-05-04 06:46 52.81451 9.39103 35982 ft 420 kts 192°
2026-05-04 06:46 52.75654 9.37824 35990 ft 420 kts 192°
2026-05-04 06:48 52.52563 9.32773 35989 ft 418 kts 191°
2026-05-04 06:50 52.29469 9.27780 35988 ft 418 kts 191°
2026-05-04 06:51 52.23708 9.26543 35988 ft 418 kts 192°
2026-05-04 06:51 52.17940 9.25307 35991 ft 418 kts 192°
2026-05-04 06:52 52.12176 9.24073 35978 ft 418 kts 192°
2026-05-04 06:52 52.06406 9.22837 35988 ft 418 kts 192°
2026-05-04 06:53 52.00642 9.21612 35997 ft 418 kts 191°
2026-05-04 06:53 51.94876 9.20394 35998 ft 418 kts 192°
2026-05-04 06:54 51.89109 9.19169 35998 ft 418 kts 192°
2026-05-04 06:54 51.83344 9.17942 36002 ft 418 kts 192°
2026-05-04 06:55 51.77582 9.16732 36006 ft 418 kts 192°
2026-05-04 06:55 51.71818 9.15527 36008 ft 418 kts 192°
2026-05-04 06:57 51.48831 9.10639 36016 ft 415 kts 194°
2026-05-04 06:58 51.43231 9.08803 36001 ft 413 kts 196°
2026-05-04 06:58 51.37626 9.06738 36007 ft 413 kts 196°
2026-05-04 06:59 51.31965 9.05075 36012 ft 417 kts 186°
2026-05-04 06:59 51.26142 9.06021 36015 ft 424 kts 175°
2026-05-04 07:01 51.02799 9.12312 36011 ft 426 kts 175°
2026-05-04 07:02 50.96950 9.13876 36006 ft 427 kts 175°
2026-05-04 07:02 50.91092 9.15432 36013 ft 427 kts 175°
2026-05-04 07:03 50.85232 9.16995 36017 ft 427 kts 175°
2026-05-04 07:03 50.79371 9.18544 36020 ft 427 kts 175°
2026-05-04 07:04 50.73506 9.20049 36022 ft 425 kts 179°
2026-05-04 07:04 50.67684 9.19743 36028 ft 417 kts 191°
2026-05-04 07:05 50.61932 9.18528 36030 ft 417 kts 192°
2026-05-04 07:05 50.56216 9.17322 36035 ft 417 kts 191°
2026-05-04 07:06 50.47540 9.15537 36033 ft 417 kts 191°
2026-05-04 07:07 50.41828 9.14362 36041 ft 417 kts 191°
2026-05-04 07:09 50.18856 9.09660 36039 ft 416 kts 191°
2026-05-04 07:09 50.13116 9.08483 36047 ft 416 kts 191°
2026-05-04 07:10 50.07379 9.07311 36048 ft 416 kts 191°
2026-05-04 07:12 49.84378 9.02660 36042 ft 417 kts 191°
2026-05-04 07:12 49.78616 9.01511 36032 ft 418 kts 191°
2026-05-04 07:13 49.72848 9.00362 36038 ft 418 kts 191°
2026-05-04 07:13 49.67078 8.99218 36042 ft 418 kts 191°
2026-05-04 07:14 49.52817 8.95447 36042 ft 417 kts 194°
2026-05-04 07:15 49.47114 8.93820 36044 ft 417 kts 193°
2026-05-04 07:15 49.41392 8.92255 36045 ft 417 kts 193°
2026-05-04 07:16 49.36639 8.90973 36042 ft 417 kts 193°
2026-05-04 07:16 49.30917 8.89424 36044 ft 417 kts 193°
2026-05-04 07:17 49.25203 8.87868 36048 ft 417 kts 193°
2026-05-04 07:17 49.19485 8.86306 36047 ft 417 kts 193°
2026-05-04 07:18 49.13765 8.84765 36042 ft 417 kts 193°
2026-05-04 07:18 49.08048 8.83214 36051 ft 417 kts 193°
2026-05-04 07:19 49.02343 8.81647 36046 ft 417 kts 193°
2026-05-04 07:19 48.96632 8.80087 36034 ft 417 kts 193°
2026-05-04 07:20 48.90918 8.78539 36034 ft 417 kts 193°
2026-05-04 07:20 48.85202 8.76992 36035 ft 417 kts 193°
2026-05-04 07:22 48.62330 8.70888 36040 ft 418 kts 193°
2026-05-04 07:23 48.56598 8.69362 36051 ft 418 kts 193°
2026-05-04 07:23 48.50863 8.67842 36038 ft 419 kts 193°
2026-05-04 07:24 48.45119 8.66326 36039 ft 419 kts 193°
2026-05-04 07:24 48.39384 8.64809 35743 ft 416 kts 193°
2026-05-04 07:25 48.36536 8.64041 35123 ft 415 kts 194°
2026-05-04 07:26 48.16702 8.57999 30007 ft 416 kts 193°
2026-05-04 07:27 48.13877 8.57161 29327 ft 412 kts 193°
2026-05-04 07:27 48.11070 8.56335 28643 ft 409 kts 193°
2026-05-04 07:27 48.08291 8.55518 27994 ft 405 kts 193°
2026-05-04 07:27 48.05541 8.54701 27353 ft 402 kts 193°
2026-05-04 07:28 48.02806 8.53885 26709 ft 399 kts 193°
2026-05-04 07:28 48.00091 8.53078 26085 ft 396 kts 193°
2026-05-04 07:28 47.97360 8.52643 25489 ft 396 kts 181°
2026-05-04 07:28 47.94629 8.53151 24891 ft 397 kts 168°
2026-05-04 07:29 47.92043 8.54599 24301 ft 399 kts 155°
2026-05-04 07:29 47.89732 8.56897 23722 ft 401 kts 143°
2026-05-04 07:29 47.87580 8.59527 23055 ft 399 kts 143°
2026-05-04 07:29 47.85442 8.62140 22443 ft 395 kts 143°
2026-05-04 07:30 47.83324 8.64723 21868 ft 391 kts 144°
2026-05-04 07:30 47.81229 8.67268 21320 ft 387 kts 144°
2026-05-04 07:30 47.79153 8.69782 20768 ft 383 kts 144°
2026-05-04 07:30 47.77095 8.72267 20228 ft 379 kts 144°
2026-05-04 07:31 47.75057 8.74729 19701 ft 375 kts 144°
2026-05-04 07:31 47.73041 8.77162 19185 ft 372 kts 144°
2026-05-04 07:33 47.60282 8.94882 15157 ft 353 kts 133°
2026-05-04 07:33 47.58461 8.97200 14647 ft 341 kts 154°
2026-05-04 07:33 47.56278 8.98231 14123 ft 332 kts 177°
2026-05-04 07:33 47.54020 8.97879 13552 ft 326 kts 199°
2026-05-04 07:34 47.52052 8.96275 12924 ft 325 kts 219°
2026-05-04 07:34 47.50632 8.93679 12319 ft 327 kts 240°
2026-05-04 07:34 47.50007 8.90495 12049 ft 316 kts 263°
2026-05-04 07:34 47.50166 8.87373 11668 ft 300 kts 282°
2026-05-04 07:35 47.51034 8.84594 10965 ft 299 kts 304°
2026-05-04 07:35 47.52391 8.82269 10177 ft 298 kts 310°
2026-05-04 07:35 47.53767 8.79993 9290 ft 296 kts 310°
2026-05-04 07:35 47.55145 8.77697 8826 ft 298 kts 310°
2026-05-04 07:36 47.56430 8.75322 8466 ft 294 kts 303°
2026-05-04 07:36 47.57468 8.72743 8070 ft 290 kts 295°
2026-05-04 07:38 47.59611 8.52980 5668 ft 249 kts 275°
2026-05-04 07:38 47.59735 8.50494 5345 ft 236 kts 275°
2026-05-04 07:38 47.59852 8.48107 4880 ft 228 kts 275°
2026-05-04 07:38 47.59650 8.45841 4430 ft 221 kts 245°
2026-05-04 07:39 47.58712 8.44099 4076 ft 217 kts 214°
2026-05-04 07:39 47.57364 8.43361 3985 ft 201 kts 185°
2026-05-04 07:39 47.56012 8.43601 3990 ft 195 kts 160°
2026-05-04 07:39 47.54867 8.44516 4013 ft 182 kts 140°
2026-05-04 07:40 47.53949 8.45763 3786 ft 182 kts 136°
2026-05-04 07:40 47.52970 8.47103 2915 ft 197 kts 133°
2026-05-04 07:40 47.52012 8.48528 2365 ft 190 kts 136°
2026-05-04 07:40 47.51086 8.49737 2170 ft 167 kts 137°
2026-05-04 07:41 47.50257 8.50843 1966 ft 153 kts 137°
2026-05-04 07:41 47.49496 8.51860 1750 ft 143 kts 137°
2026-05-04 07:41 47.48785 8.52833 1557 ft 135 kts 137°
2026-05-04 07:41 47.48091 8.53775 1429 ft 142 kts 136°
2026-05-04 07:42 47.47401 8.54714 1398 ft 120 kts 138°
2026-05-04 07:42 47.46942 8.55337 1400 ft 55 kts 137°
2026-05-04 07:42 47.46689 8.55639 1402 ft 28 kts 160°
2026-05-04 07:42 47.46503 8.55709 1407 ft 28 kts 168°
2026-05-04 07:43 47.46331 8.55831 1404 ft 28 kts 139°
2026-05-04 07:43 47.46182 8.56000 1404 ft 26 kts 168°
2026-05-04 07:43 47.46008 8.55975 1402 ft 25 kts 185°
2026-05-04 07:43 47.45842 8.55907 1401 ft 15 kts 203°
2026-05-04 07:44 47.45754 8.55874 1399 ft 15 kts 186°
2026-05-04 07:44 47.45633 8.55861 1397 ft 19 kts 187°
2026-05-04 07:44 47.45495 8.55818 1402 ft 21 kts 196°
2026-05-04 07:44 47.45433 8.55804 1401 ft 0 kts 187°